Location: Unspecified
(17.6330°N, 0.0000°E)
Time: 13:38:21
(UTC+00:00)

Tiros 1 despin weight - Pass Details

Date: 08 August 2020
Orbit: 593 x 642 km, 48.2° (Epoch: 23 September)

Event Time Altitude Azimuth Distance (km) Brightness Sun altitude
Exits shadow 04:20:38 - 176° (S) 2,373 ? -18.8°
Reaches altitude 10° 04:22:07 10° 163° (SSE) 1,989 ? -18.4°
Maximum altitude 04:24:46 15° 127° (SE) 1,661 ? -17.9°
Drops below altitude 10° 04:27:25 10° 92° (E) 1,973 ? -17.3°
Sets 04:30:33 0° 69° (ENE) 2,867 ? -16.6°
